EN

Hourly Weather Parád

Today, 26 February, Friday

Time Temperature Precipitation Wind Pressure Humidity
00:00 +5°C° 0 mm 0 mps 713 mmHg 83%
01:00 +4°C° 0 mm 0 mps 713 mmHg 84%
02:00 +4°C° 0 mm 0 mps 712 mmHg 84%
03:00 +4°C° 0 mm 0 mps 712 mmHg 84%
04:00 +4°C° 0 mm 0 mps 711 mmHg 84%
05:00 +3°C° 0 mm 0 mps 711 mmHg 85%
06:00 +3°C° 0 mm 0 mps 711 mmHg 85%
07:00 +3°C° 0 mm 0 mps 711 mmHg 85%
08:00 +5°C° 0 mm 0 mps 711 mmHg 80%
09:00 +7°C° 0 mm 1 mps 711 mmHg 75%
10:00 +9°C° 0 mm 1 mps 712 mmHg 70%
11:00 +10°C° 0 mm 1 mps 711 mmHg 68%
12:00 +11°C° 0 mm 1 mps 711 mmHg 65%
13:00 +12°C° 0 mm 2 mps 711 mmHg 62%
14:00 +12°C° 0 mm 2 mps 710 mmHg 65%
15:00 +12°C° 0 mm 2 mps 710 mmHg 67%
16:00 +12°C° 0 mm 2 mps 709 mmHg 70%
17:00 +9°C° 0 mm 2 mps 709 mmHg 74%
18:00 +8°C° 0 mm 2 mps 709 mmHg 78%
19:00 +7°C° 0 mm 2 mps 708 mmHg 83%
20:00 +6°C° 0 mm 2 mps 708 mmHg 84%
21:00 +6°C° 0 mm 2 mps 708 mmHg 85%
22:00 +6°C° 0 mm 1 mps 708 mmHg 86%
23:00 +6°C° 0 mm 1 mps 708 mmHg 87%

Tomorrow, 27 February, Saturday

Time Temperature Precipitation Wind Pressure Humidity
00:00 +5°C° 0 mm 1 mps 708 mmHg 87%
01:00 +5°C° 0 mm 1 mps 708 mmHg 88%
02:00 +5°C° 0 mm 1 mps 708 mmHg 90%
03:00 +5°C° 0 mm 1 mps 708 mmHg 91%
04:00 +5°C° 0 mm 1 mps 708 mmHg 92%
05:00 +5°C° 0.2 mm 1 mps 709 mmHg 91%
06:00 +4°C° 0.2 mm 1 mps 709 mmHg 90%
07:00 +3°C° 0.2 mm 2 mps 710 mmHg 89%
08:00 +3°C° 0.1 mm 2 mps 710 mmHg 82%
09:00 +4°C° 0.1 mm 2 mps 710 mmHg 75%
10:00 +4°C° 0.1 mm 2 mps 711 mmHg 69%
11:00 +4°C° 0 mm 3 mps 711 mmHg 64%
12:00 +5°C° 0 mm 3 mps 711 mmHg 60%
13:00 +7°C° 0 mm 3 mps 711 mmHg 55%
14:00 +7°C° 0 mm 3 mps 711 mmHg 56%
15:00 +5°C° 0 mm 3 mps 711 mmHg 56%
16:00 +5°C° 0 mm 3 mps 711 mmHg 56%
17:00 +4°C° 0 mm 3 mps 711 mmHg 62%
18:00 +4°C° 0 mm 2 mps 712 mmHg 67%
19:00 +2°C° 0 mm 2 mps 712 mmHg 72%
20:00 +2°C° 0 mm 2 mps 712 mmHg 74%
21:00 +2°C° 0 mm 1 mps 712 mmHg 76%
22:00 +2°C° 0 mm 1 mps 712 mmHg 78%
23:00 +1°C° 0 mm 1 mps 712 mmHg 79%

Day after tomorrow, 28 February, Sunday

Time Temperature Precipitation Wind Pressure Humidity
00:00 +1°C° 0 mm 1 mps 712 mmHg 80%
01:00 0°C° 0 mm 1 mps 712 mmHg 81%
02:00 0°C° 0 mm 1 mps 712 mmHg 81%
03:00 0°C° 0 mm 1 mps 712 mmHg 81%
04:00 -1°C° 0 mm 1 mps 712 mmHg 82%
05:00 -1°C° 0 mm 1 mps 712 mmHg 81%
06:00 -1°C° 0 mm 1 mps 712 mmHg 81%
07:00 -1°C° 0 mm 1 mps 713 mmHg 81%
08:00 +1°C° 0 mm 1 mps 713 mmHg 74%
09:00 +2°C° 0 mm 1 mps 713 mmHg 68%
10:00 +4°C° 0 mm 1 mps 714 mmHg 62%
11:00 +5°C° 0 mm 1 mps 714 mmHg 58%
12:00 +6°C° 0 mm 1 mps 714 mmHg 55%
13:00 +6°C° 0 mm 1 mps 714 mmHg 51%
14:00 +6°C° 0 mm 1 mps 714 mmHg 51%
15:00 +6°C° 0 mm 1 mps 713 mmHg 51%
16:00 +6°C° 0 mm 1 mps 713 mmHg 51%
17:00 +5°C° 0 mm 1 mps 713 mmHg 56%
18:00 +3°C° 0 mm 0 mps 713 mmHg 61%
19:00 +2°C° 0 mm 0 mps 713 mmHg 66%
20:00 +1°C° 0 mm 0 mps 713 mmHg 68%
21:00 +1°C° 0 mm 0 mps 714 mmHg 70%
22:00 +1°C° 0 mm 1 mps 714 mmHg 72%
23:00 0°C° 0 mm 0 mps 714 mmHg 74%

1 March, Monday

Time Temperature Precipitation Wind Pressure Humidity
00:00 0°C° 0 mm 0 mps 714 mmHg 76%
01:00 -1°C° 0 mm 0 mps 714 mmHg 78%
02:00 -1°C° 0 mm 0 mps 714 mmHg 79%
03:00 -1°C° 0 mm 0 mps 713 mmHg 80%
04:00 -2°C° 0 mm 0 mps 713 mmHg 80%
05:00 -1°C° 0 mm 0 mps 713 mmHg 80%
06:00 -1°C° 0 mm 0 mps 714 mmHg 79%
07:00 0°C° 0 mm 1 mps 714 mmHg 79%
08:00 0°C° 0 mm 0 mps 714 mmHg 72%
09:00 +2°C° 0 mm 0 mps 715 mmHg 65%
10:00 +4°C° 0 mm 0 mps 715 mmHg 59%
11:00 +5°C° 0 mm 1 mps 716 mmHg 56%
12:00 +6°C° 0 mm 1 mps 716 mmHg 54%
13:00 +7°C° 0 mm 1 mps 716 mmHg 52%
14:00 +7°C° 0 mm 1 mps 716 mmHg 53%
15:00 +7°C° 0 mm 1 mps 716 mmHg 54%
16:00 +7°C° 0 mm 1 mps 716 mmHg 56%
17:00 +6°C° 0 mm 1 mps 716 mmHg 62%
18:00 +4°C° 0 mm 1 mps 716 mmHg 67%
19:00 +2°C° 0 mm 0 mps 716 mmHg 73%
20:00 +2°C° 0 mm 0 mps 716 mmHg 75%
21:00 +1°C° 0 mm 0 mps 716 mmHg 78%
22:00 +1°C° 0 mm 0 mps 717 mmHg 80%
23:00 0°C° 0 mm 0 mps 717 mmHg 82%

2 March, Tuesday

Time Temperature Precipitation Wind Pressure Humidity
00:00 0°C° 0 mm 0 mps 717 mmHg 83%
01:00 0°C° 0 mm 0 mps 717 mmHg 85%
02:00 -1°C° 0 mm 0 mps 716 mmHg 85%
03:00 -1°C° 0 mm 0 mps 716 mmHg 86%
04:00 -1°C° 0 mm 0 mps 716 mmHg 87%
05:00 -1°C° 0 mm 0 mps 716 mmHg 87%
06:00 -1°C° 0 mm 0 mps 716 mmHg 87%
07:00 -1°C° 0 mm 0 mps 716 mmHg 86%
08:00 +2°C° 0 mm 1 mps 717 mmHg 80%
09:00 +3°C° 0 mm 1 mps 717 mmHg 73%
10:00 +5°C° 0 mm 1 mps 717 mmHg 66%
11:00 +6°C° 0 mm 1 mps 718 mmHg 62%
12:00 +7°C° 0 mm 1 mps 718 mmHg 58%
13:00 +8°C° 0 mm 1 mps 718 mmHg 54%
14:00 +8°C° 0 mm 1 mps 717 mmHg 55%
15:00 +8°C° 0 mm 1 mps 717 mmHg 56%
16:00 +8°C° 0 mm 1 mps 717 mmHg 57%
17:00 +7°C° 0 mm 1 mps 717 mmHg 61%
18:00 +6°C° 0 mm 1 mps 716 mmHg 65%
19:00 +3°C° 0 mm 0 mps 716 mmHg 70%
20:00 +3°C° 0 mm 0 mps 716 mmHg 71%
21:00 +3°C° 0 mm 0 mps 716 mmHg 72%
22:00 +2°C° 0 mm 0 mps 716 mmHg 73%
23:00 +2°C° 0 mm 0 mps 716 mmHg 74%

3 March, Wednesday

Time Temperature Precipitation Wind Pressure Humidity
00:00 +1°C° 0 mm 0 mps 716 mmHg 75%
01:00 +2°C° 0 mm 1 mps 715 mmHg 76%
02:00 +2°C° 0 mm 1 mps 715 mmHg 77%
03:00 +1°C° 0 mm 0 mps 715 mmHg 78%
04:00 0°C° 0 mm 0 mps 715 mmHg 78%
05:00 +1°C° 0 mm 1 mps 715 mmHg 79%
06:00 +1°C° 0 mm 1 mps 714 mmHg 79%
07:00 +1°C° 0 mm 1 mps 714 mmHg 79%
08:00 +3°C° 0 mm 1 mps 715 mmHg 73%
09:00 +5°C° 0 mm 1 mps 715 mmHg 67%
10:00 +5°C° 0 mm 2 mps 715 mmHg 61%
11:00 +6°C° 0 mm 2 mps 715 mmHg 58%
12:00 +7°C° 0 mm 2 mps 715 mmHg 56%
13:00 +8°C° 0 mm 3 mps 715 mmHg 53%
14:00 +8°C° 0 mm 3 mps 714 mmHg 54%
15:00 +8°C° 0 mm 3 mps 714 mmHg 55%
16:00 +8°C° 0 mm 2 mps 713 mmHg 57%
17:00 +7°C° 0 mm 2 mps 713 mmHg 62%
18:00 +5°C° 0 mm 2 mps 712 mmHg 67%
19:00 +5°C° 0 mm 1 mps 712 mmHg 73%
20:00 +5°C° 0 mm 1 mps 712 mmHg 75%
21:00 +4°C° 0 mm 1 mps 712 mmHg 77%
22:00 +4°C° 0 mm 1 mps 711 mmHg 79%
23:00 +3°C° 0 mm 1 mps 711 mmHg 81%
Show more

We Need Your Consent

Meteoprog and our Service Providers may store and access personal data such as cookies, device identifiers or other similar technologies on your device and process such data to personalise content and ads, as well as provide social media features and to analyse the traffic.

  • Store and/or access information on your device

    Cookies, device identifiers or other information can be stored or accessed on your device for the purposes indicated above.

  • Personalised ads and content, ad and content measurement, audience insights, and products development

    Ads and content can be personalised based on a profile. More data can be added to better personalise ads and content. Ad and content performance can be measured. Insights about the audience who saw the ads and content can be derived. Such data can be used to develop or improve user’s experience, systems and software.

By clicking ‘I Agree’ you will allow the use of indicated cookies, device identifiers, web beacons or other similar technologies. Your settings can be changed in the browser on your device.

For certain purposes, legitimate interests may be relied on, rather than consent. You can read more about this in our Privacy and Cookie Policy.